• In Deutschland
  • Länderverzeichnis
  • Für 7 Tage
  • Wassertemperatur
  • Satellitenkarten
  • Wetterkarte
  • Widgets
  • user-avatar
    Anmelden

    Stündliche Wetter Haradok

    Heute, 26 Juni, Montag

    Zeit Temperatur Niederschläge Wind Luftdruck Luftfeuchtigkeit
    00:00 +13°C° 0 mm 3 m/S 741 mmHg 92%
    01:00 +13°C° 0 mm 4 m/S 741 mmHg 91%
    02:00 +14°C° 0 mm 4 m/S 740 mmHg 90%
    03:00 +14°C° 0 mm 4 m/S 740 mmHg 91%
    04:00 +15°C° 0 mm 4 m/S 740 mmHg 92%
    05:00 +15°C° 0 mm 4 m/S 740 mmHg 92%
    06:00 +16°C° 0 mm 5 m/S 740 mmHg 87%
    07:00 +17°C° 0 mm 5 m/S 740 mmHg 82%
    08:00 +19°C° 0 mm 6 m/S 740 mmHg 76%
    09:00 +19°C° 0 mm 6 m/S 740 mmHg 72%
    10:00 +20°C° 0 mm 6 m/S 740 mmHg 68%
    11:00 +21°C° 0 mm 6 m/S 740 mmHg 64%
    12:00 +21°C° 0,1 mm 6 m/S 740 mmHg 66%
    13:00 +20°C° 0,1 mm 6 m/S 740 mmHg 68%
    14:00 +20°C° 0,1 mm 6 m/S 740 mmHg 70%
    15:00 +20°C° 0,2 mm 6 m/S 740 mmHg 70%
    16:00 +20°C° 0,2 mm 6 m/S 739 mmHg 70%
    17:00 +20°C° 0,2 mm 6 m/S 739 mmHg 71%
    18:00 +19°C° 0 mm 5 m/S 740 mmHg 73%
    19:00 +17°C° 0 mm 4 m/S 740 mmHg 76%
    20:00 +16°C° 0 mm 3 m/S 740 mmHg 79%
    21:00 +15°C° 0 mm 4 m/S 740 mmHg 79%
    22:00 +14°C° 0 mm 4 m/S 740 mmHg 80%
    23:00 +13°C° 0 mm 4 m/S 740 mmHg 80%

    Morgen, 27 Juni, Dienstag

    Zeit Temperatur Niederschläge Wind Luftdruck Luftfeuchtigkeit
    00:00 +12°C° 0 mm 4 m/S 741 mmHg 82%
    01:00 +11°C° 0 mm 4 m/S 741 mmHg 83%
    02:00 +11°C° 0 mm 4 m/S 741 mmHg 84%
    03:00 +10°C° 0 mm 4 m/S 741 mmHg 85%
    04:00 +9°C° 0 mm 5 m/S 742 mmHg 85%
    05:00 +9°C° 0 mm 5 m/S 742 mmHg 86%
    06:00 +12°C° 0 mm 5 m/S 742 mmHg 82%
    07:00 +13°C° 0 mm 5 m/S 742 mmHg 79%
    08:00 +15°C° 0 mm 6 m/S 742 mmHg 75%
    09:00 +16°C° 0 mm 6 m/S 743 mmHg 70%
    10:00 +17°C° 0 mm 7 m/S 743 mmHg 66%
    11:00 +18°C° 0 mm 7 m/S 743 mmHg 61%
    12:00 +18°C° 0,1 mm 7 m/S 743 mmHg 60%
    13:00 +20°C° 0,1 mm 7 m/S 743 mmHg 59%
    14:00 +20°C° 0,1 mm 7 m/S 743 mmHg 59%
    15:00 +20°C° 0,1 mm 7 m/S 743 mmHg 61%
    16:00 +20°C° 0,1 mm 6 m/S 743 mmHg 63%
    17:00 +19°C° 0,1 mm 6 m/S 743 mmHg 66%
    18:00 +17°C° 0 mm 5 m/S 743 mmHg 70%
    19:00 +17°C° 0 mm 4 m/S 743 mmHg 75%
    20:00 +16°C° 0 mm 3 m/S 744 mmHg 79%
    21:00 +14°C° 0 mm 3 m/S 744 mmHg 82%
    22:00 +13°C° 0 mm 3 m/S 744 mmHg 84%
    23:00 +12°C° 0 mm 3 m/S 745 mmHg 87%

    übermorgen, 28 Juni, Mittwoch

    Zeit Temperatur Niederschläge Wind Luftdruck Luftfeuchtigkeit
    00:00 +11°C° 0 mm 3 m/S 745 mmHg 89%
    01:00 +10°C° 0 mm 3 m/S 745 mmHg 91%
    02:00 +9°C° 0 mm 3 m/S 746 mmHg 93%
    03:00 +9°C° 0 mm 3 m/S 746 mmHg 93%
    04:00 +9°C° 0 mm 2 m/S 746 mmHg 92%
    05:00 +9°C° 0 mm 2 m/S 747 mmHg 91%
    06:00 +12°C° 0 mm 2 m/S 747 mmHg 83%
    07:00 +14°C° 0 mm 2 m/S 747 mmHg 76%
    08:00 +14°C° 0 mm 3 m/S 747 mmHg 68%
    09:00 +17°C° 0 mm 3 m/S 747 mmHg 64%
    10:00 +18°C° 0 mm 3 m/S 747 mmHg 59%
    11:00 +19°C° 0 mm 3 m/S 747 mmHg 55%
    12:00 +19°C° 0 mm 3 m/S 747 mmHg 53%
    13:00 +20°C° 0 mm 2 m/S 747 mmHg 52%
    14:00 +21°C° 0 mm 2 m/S 747 mmHg 50%
    15:00 +21°C° 0 mm 2 m/S 747 mmHg 51%
    16:00 +21°C° 0 mm 2 m/S 747 mmHg 52%
    17:00 +21°C° 0 mm 2 m/S 747 mmHg 54%
    18:00 +19°C° 0 mm 2 m/S 747 mmHg 61%
    19:00 +17°C° 0 mm 2 m/S 746 mmHg 69%
    20:00 +15°C° 0 mm 2 m/S 746 mmHg 77%
    21:00 +14°C° 0 mm 2 m/S 746 mmHg 78%
    22:00 +13°C° 0 mm 2 m/S 746 mmHg 79%
    23:00 +11°C° 0 mm 3 m/S 747 mmHg 80%

    29 Juni, Donnerstag

    Zeit Temperatur Niederschläge Wind Luftdruck Luftfeuchtigkeit
    00:00 +11°C° 0 mm 3 m/S 746 mmHg 80%
    01:00 +11°C° 0 mm 3 m/S 746 mmHg 80%
    02:00 +11°C° 0 mm 3 m/S 746 mmHg 81%
    03:00 +12°C° 0 mm 4 m/S 746 mmHg 79%
    04:00 +13°C° 0 mm 4 m/S 746 mmHg 78%
    05:00 +14°C° 0 mm 4 m/S 746 mmHg 77%
    06:00 +16°C° 0 mm 5 m/S 746 mmHg 76%
    07:00 +17°C° 0 mm 5 m/S 745 mmHg 76%
    08:00 +19°C° 0 mm 5 m/S 745 mmHg 75%
    09:00 +22°C° 0 mm 6 m/S 745 mmHg 72%
    10:00 +24°C° 0 mm 6 m/S 745 mmHg 69%
    11:00 +27°C° 0 mm 6 m/S 744 mmHg 66%
    12:00 +28°C° 0,3 mm 6 m/S 744 mmHg 65%
    13:00 +29°C° 0,3 mm 6 m/S 743 mmHg 65%
    14:00 +30°C° 0,3 mm 6 m/S 743 mmHg 65%
    15:00 +29°C° 0,4 mm 6 m/S 742 mmHg 66%
    16:00 +29°C° 0,4 mm 5 m/S 742 mmHg 68%
    17:00 +29°C° 0,4 mm 5 m/S 742 mmHg 69%
    18:00 +28°C° 0,1 mm 5 m/S 741 mmHg 72%
    19:00 +27°C° 0,1 mm 5 m/S 741 mmHg 74%
    20:00 +24°C° 0,1 mm 6 m/S 741 mmHg 76%
    21:00 +24°C° 0,1 mm 6 m/S 741 mmHg 76%
    22:00 +23°C° 0,1 mm 6 m/S 741 mmHg 76%
    23:00 +23°C° 0,1 mm 7 m/S 741 mmHg 76%

    30 Juni, Freitag

    Zeit Temperatur Niederschläge Wind Luftdruck Luftfeuchtigkeit
    00:00 +22°C° 0,1 mm 6 m/S 740 mmHg 77%
    01:00 +22°C° 0,1 mm 6 m/S 740 mmHg 78%
    02:00 +22°C° 0,1 mm 6 m/S 740 mmHg 79%
    03:00 +21°C° 0 mm 6 m/S 740 mmHg 82%
    04:00 +21°C° 0 mm 6 m/S 740 mmHg 84%
    05:00 +21°C° 0 mm 6 m/S 740 mmHg 87%
    06:00 +22°C° 0,1 mm 6 m/S 739 mmHg 85%
    07:00 +22°C° 0,1 mm 6 m/S 739 mmHg 83%
    08:00 +23°C° 0,1 mm 7 m/S 739 mmHg 82%
    09:00 +24°C° 0,4 mm 7 m/S 739 mmHg 79%
    10:00 +26°C° 0,4 mm 7 m/S 739 mmHg 76%
    11:00 +27°C° 0,4 mm 8 m/S 739 mmHg 74%
    12:00 +26°C° 1,1 mm 8 m/S 739 mmHg 74%
    13:00 +26°C° 1,1 mm 7 m/S 738 mmHg 74%
    14:00 +26°C° 1,1 mm 7 m/S 738 mmHg 74%
    15:00 +24°C° 1,1 mm 7 m/S 738 mmHg 77%
    16:00 +23°C° 1,1 mm 6 m/S 738 mmHg 79%
    17:00 +23°C° 1,1 mm 6 m/S 738 mmHg 81%
    18:00 +21°C° 0,8 mm 5 m/S 738 mmHg 84%
    19:00 +20°C° 0,8 mm 5 m/S 739 mmHg 87%
    20:00 +19°C° 0,8 mm 5 m/S 739 mmHg 90%
    21:00 +18°C° 0,2 mm 4 m/S 739 mmHg 92%
    22:00 +17°C° 0,2 mm 4 m/S 739 mmHg 93%
    23:00 +16°C° 0,2 mm 3 m/S 740 mmHg 94%

    1 Juli, Samstag

    Zeit Temperatur Niederschläge Wind Luftdruck Luftfeuchtigkeit
    00:00 +15°C° 0 mm 4 m/S 740 mmHg 94%
    01:00 +14°C° 0 mm 4 m/S 740 mmHg 93%
    02:00 +14°C° 0 mm 4 m/S 740 mmHg 93%
    03:00 +14°C° 0 mm 5 m/S 739 mmHg 91%
    04:00 +14°C° 0 mm 5 m/S 739 mmHg 90%
    05:00 +15°C° 0 mm 6 m/S 739 mmHg 89%
    06:00 +16°C° 0 mm 7 m/S 739 mmHg 82%
    07:00 +17°C° 0 mm 7 m/S 739 mmHg 75%
    08:00 +20°C° 0 mm 8 m/S 739 mmHg 68%
    09:00 +19°C° 0 mm 9 m/S 739 mmHg 64%
    10:00 +21°C° 0 mm 9 m/S 739 mmHg 60%
    11:00 +22°C° 0 mm 10 m/S 739 mmHg 55%
    12:00 +23°C° 0,1 mm 9 m/S 739 mmHg 55%
    13:00 +23°C° 0,1 mm 9 m/S 739 mmHg 54%
    14:00 +24°C° 0,1 mm 9 m/S 739 mmHg 53%
    15:00 +23°C° 0,1 mm 8 m/S 738 mmHg 56%
    16:00 +23°C° 0,1 mm 7 m/S 738 mmHg 58%
    17:00 +23°C° 0,1 mm 6 m/S 738 mmHg 61%
    18:00 +22°C° 0 mm 6 m/S 738 mmHg 65%
    19:00 +20°C° 0 mm 6 m/S 738 mmHg 69%
    20:00 +17°C° 0 mm 5 m/S 738 mmHg 73%
    21:00 +17°C° 0 mm 5 m/S 738 mmHg 75%
    22:00 +16°C° 0 mm 5 m/S 739 mmHg 76%
    23:00 +15°C° 0 mm 5 m/S 739 mmHg 78%
    Mehr zeigen